Tracking 30970 objects as of 3-Jul-2025
HD Live streaming from Space Station
objects crossing your sky now

STARLINK-6315

Track STARLINK-6315 now!
10-day predictions
STARLINK-6315 is classified as:


NORAD ID: 57236
Int'l Code: 2023-094U
Perigee: 565.3 km
Apogee: 567.2 km
Inclination: 43.0 °
Period: 95.8 minutes
Semi major axis: 6937 km
RCS: Unknown
Launch date: July 7, 2023
Source: United States (US)
Launch site: AIR FORCE WESTERN TEST RANGE (AFWTR)
Your satellite tracking list
Your tracking list is empty




NASA's NSSDC Master Catalog

Two Line Element Set (TLE):
1 57236U 23094U   25183.66672456 -.00002355  00000-0 -15937-3 0  9997
2 57236  43.0045 296.4332 0001376 267.3015  92.7669 15.02524561109652
Source of the keplerian elements: AFSPC